Home > Weather > Knarrevik/Straume > Past weeks

Flag for Norway Past Weather in Knarrevik/Straume, Norway — Yesterday and Last 2 Weeks

Now
64 °F

Sunny.


Feels Like: 64 °F
Forecast: 46 / 62 °F
Wind: 2 mph from Southwest

Location: Bergen / Flesland

Current Time: May 25, 2016 at 9:06:58 PM

Latest Report: May 25, 2016 at 8:00 PM


Visibility: 19 mi

Pressure: 30.11 "Hg

Humidity: 38%

Dew Point: 38 °F

Location of Knarrevik/StraumeLocation

Past Weather in Knarrevik/Straume — Graph

°F

Knarrevik/Straume Temperature Yesterday

Maximum temperature yesterday: 57 °F (at 2:00 PM)
Minimum temperature yesterday: 44 °F (at 5:00 AM)
Average temperature yesterday: 51 °F

High & Low Weather Summary for the Past Weeks

 TemperatureHumidityPressure
High66 °F (May 11, 1:00 PM)98% (May 23, 3:00 AM)30.16 "Hg (May 23, 3:00 AM)
Low39 °F (May 14, 4:00 AM)37% (May 25, 6:00 PM)29.62 "Hg (May 20, 11:00 AM)
Average49 °F76%29.88 "Hg
* Reported May 10 8:00 PM — May 25 8:00 PM, Knarrevik/Straume, Weather by CustomWeather, © 2016

Note: Actual official high and low records may vary slightly from our data, if they occured in-between our weather recording intervals... More about our weather records

Advertising

Knarrevik/Straume Weather History for the Previous 24 Hours

Scroll right to see more
 ConditionsComfort  
Time TempWeatherWind HumidityBarometerVisibility
8:00 PM
Wed, May 25
64 °FSunny.2 mph38%30.11 "Hg19 mi
6:00 PM65 °FSunny.3 mph37%30.12 "Hg19 mi
5:00 PM66 °FSunny.3 mph42%30.13 "Hg25 mi
4:00 PM65 °FSunny.3 mph45%30.14 "Hg22 mi
3:00 PM63 °FSunny.5 mph43%30.14 "Hg22 mi
2:00 PM63 °FSunny.5 mph42%30.14 "Hg19 mi
1:00 PM62 °FSunny.5 mph46%30.15 "Hg19 mi
12:00 PM61 °FSunny.5 mph47%30.15 "Hg19 mi
11:00 AM62 °FSunny.3 mph47%30.16 "Hg22 mi
10:00 AM60 °FSunny.2 mph45%30.16 "Hg22 mi
9:00 AM58 °FSunny.1 mph50%30.16 "Hg28 mi
8:00 AM56 °FSunny.No wind59%30.15 "Hg17 mi
7:00 AM52 °FCool.No wind68%30.15 "Hg31 mi
6:00 AM47 °FSunny.1 mph81%30.14 "Hg22 mi
5:00 AM44 °FSunny.No wind86%30.13 "Hg17 mi
4:00 AM45 °FClear.2 mph84%30.12 "Hg31 mi
3:00 AM46 °FClear.2 mph84%30.11 "Hg31 mi
2:00 AM47 °FClear.3 mph79%30.10 "Hg28 mi
1:00 AM49 °FClear.6 mph76%30.09 "Hg28 mi
12:00 AM49 °FClear.7 mph77%30.09 "Hg31 mi
11:00 PM
Tue, May 24
50 °FClear.7 mph73%30.09 "Hg31 mi
10:00 PM51 °FSunny.6 mph74%30.09 "Hg19 mi
9:00 PM54 °FSunny.6 mph68%30.09 "Hg22 mi
Weather by CustomWeather, © 2016

See weather overviewHow to use our weather pages